Date String (YYYY-MM-DD hh:mm:ss) UTC,Instrument flags,Ambient pressure (hPa),Sample flow (lpm),Bypass flow (lpm),Sample temperature (°C),Ambient temperature (°C),ASC tube jacket temperature (°C),LED temperature (°C),Box temperature (°C),Sample RH (%),Span deviation,Mass concentration (μg/m³),Mass concentration (μg/m³),Mass concentration (μg/m³)
DateTimeUTC,F1_M11,P_M11,Q1_M11,Q2_M11,T1_M11,T2_M11,T3_M11,T4_M11,T5_M11,U1_M11,ZSPAN_M11,X0_M11,X2_M11,X1_M11
2023-04-27 11:00:00,,0826.2,4.99,0.00,24.0,22.5,00.0,32.3,25.6,19.7,0000.0,0011.01,0003.95,0003.08
2023-04-27 11:01:00,,0826.2,5.00,0.00,24.0,22.5,00.0,32.3,25.6,19.8,0000.0,0010.91,0003.94,0003.09
2023-04-27 11:02:00,,0826.3,5.00,0.00,24.0,22.5,00.0,32.3,25.5,20.1,0000.0,0010.83,0003.94,0003.09
2023-04-27 11:03:00,,0826.2,5.00,0.00,24.0,22.5,00.0,32.3,25.5,20.0,0000.0,0010.65,0003.91,0003.08
2023-04-27 11:04:00,,0826.3,5.00,0.00,24.0,22.5,00.0,32.3,25.5,19.9,0000.0,0010.90,0003.89,0003.09
2023-04-27 11:05:00,,0826.2,5.00,0.00,24.0,22.5,00.0,32.3,25.6,19.9,0000.0,0010.77,0003.84,0003.09
2023-04-27 11:06:00,,0826.2,5.00,0.00,24.0,22.5,00.0,32.3,25.6,19.8,0000.0,0010.25,0003.83,0003.09
2023-04-27 11:07:00,,0826.2,5.00,0.00,24.0,22.5,00.0,32.3,25.5,19.7,0000.0,0009.37,0003.77,0003.07
2023-04-27 11:08:00,,0826.2,5.00,0.00,24.0,22.5,00.0,32.3,25.6,19.7,0000.0,0009.06,0003.73,0003.05
2023-04-27 11:09:00,,0826.0,5.00,0.00,24.0,22.6,00.0,32.3,25.6,19.1,0000.0,0009.18,0003.70,0003.04
2023-04-27 11:10:00,,0826.1,5.00,0.00,24.0,22.6,00.0,32.3,25.6,19.3,0000.0,0008.71,0003.66,0003.00
2023-04-27 11:11:00,,0826.1,5.00,0.00,24.0,22.6,00.0,32.3,25.6,19.4,0000.0,0008.61,0003.62,0002.98
2023-04-27 11:12:00,,0826.1,5.01,0.00,24.0,22.6,00.0,32.3,25.6,18.0,0000.0,0009.15,0003.57,0002.95
2023-04-27 11:13:00,,0826.1,5.00,0.00,24.0,22.6,00.0,32.3,25.6,18.4,0000.0,0009.60,0003.53,0002.90
2023-04-27 11:14:00,,0826.1,5.00,0.00,24.0,22.6,00.0,32.3,25.6,19.9,0000.0,0009.85,0003.50,0002.87
2023-04-27 11:15:00,,0826.1,4.99,0.00,24.0,22.6,00.0,32.3,25.6,20.1,0000.0,0009.52,0003.51,0002.86
2023-04-27 11:16:00,,0826.2,4.99,0.00,24.0,22.6,00.0,32.3,25.6,19.9,0000.0,0009.57,0003.55,0002.85
2023-04-27 11:17:00,,0826.2,4.99,0.00,24.0,22.6,00.0,32.3,25.6,20.1,0000.0,0009.51,0003.51,0002.83
2023-04-27 11:18:00,,0826.1,5.00,0.00,24.0,22.6,00.0,32.3,25.6,20.0,0000.0,0009.43,0003.50,0002.83
2023-04-27 11:19:00,,0826.2,5.00,0.00,24.0,22.6,00.0,32.3,25.6,20.2,0000.0,0009.82,0003.48,0002.83
2023-04-27 11:20:00,,0826.2,5.00,0.00,24.0,22.6,00.0,32.3,25.6,20.7,0000.0,0009.67,0003.46,0002.82
2023-04-27 11:21:00,,0826.2,5.01,0.00,24.0,22.6,00.0,32.3,25.6,20.7,0000.0,0009.39,0003.51,0002.82
2023-04-27 11:22:00,,0826.2,5.01,0.00,24.0,22.5,00.0,32.3,25.6,20.5,0000.0,0009.37,0003.51,0002.82
2023-04-27 11:23:00,,0826.2,5.00,0.00,24.0,22.5,00.0,32.3,25.6,20.5,0000.0,0009.07,0003.54,0002.82
2023-04-27 11:24:00,,0826.2,5.00,0.00,24.0,22.4,00.0,32.3,25.5,20.5,0000.0,0008.85,0003.56,0002.85
2023-04-27 11:25:00,,0826.2,5.00,0.00,24.0,22.3,00.0,32.3,25.5,20.4,0000.0,0008.51,0003.58,0002.86
2023-04-27 11:26:00,,0826.2,4.99,0.00,24.0,22.3,00.0,32.3,25.5,20.3,0000.0,0008.10,0003.56,0002.85
2023-04-27 11:27:00,,0826.2,5.00,0.00,23.9,22.2,00.0,32.3,25.5,20.2,0000.0,0007.89,0003.50,0002.84
2023-04-27 11:28:00,,0826.3,5.01,0.00,23.9,22.2,00.0,32.3,25.5,20.0,0000.0,0007.75,0003.46,0002.84
2023-04-27 11:29:00,,0826.2,5.01,0.00,23.9,22.2,00.0,32.3,25.4,20.0,0000.0,0007.77,0003.47,0002.84
2023-04-27 11:30:00,,0826.2,4.99,0.00,23.9,22.2,00.0,32.3,25.4,20.4,0000.0,0007.14,0003.48,0002.84
2023-04-27 11:31:00,,0826.2,5.00,0.00,23.8,22.1,00.0,32.3,25.3,19.9,0000.0,0007.67,0003.50,0002.86
2023-04-27 11:32:00,,0826.1,5.00,0.00,23.8,22.1,00.0,32.3,25.4,19.1,0000.0,0008.36,0003.46,0002.86
2023-04-27 11:33:00,,0826.1,4.99,0.00,23.8,22.2,00.0,32.3,25.4,19.2,0000.0,0008.95,0003.46,0002.86
2023-04-27 11:34:00,,0826.0,5.00,0.00,23.8,22.2,00.0,32.3,25.4,19.0,0000.0,0009.11,0003.43,0002.86
2023-04-27 11:35:00,,0826.0,5.01,0.00,23.8,22.3,00.0,32.2,25.5,18.6,0000.0,0008.80,0003.43,0002.86
2023-04-27 11:36:00,,0826.0,5.00,0.00,23.9,22.3,00.0,32.2,25.5,18.5,0000.0,0008.98,0003.43,0002.85
2023-04-27 11:37:00,,0826.0,4.99,0.00,23.9,22.4,00.0,32.2,25.5,18.6,0000.0,0009.53,0003.41,0002.84
2023-04-27 11:38:00,,0825.9,5.00,0.00,23.9,22.4,00.0,32.2,25.5,18.5,0000.0,0010.01,0003.41,0002.81
2023-04-27 11:39:00,,0825.9,5.00,0.00,23.9,22.5,00.0,32.2,25.5,18.5,0000.0,0010.31,0003.40,0002.79
2023-04-27 11:40:00,,0825.9,5.00,0.00,23.9,22.5,00.0,32.2,25.5,18.8,0000.0,0010.60,0003.35,0002.77
2023-04-27 11:41:00,,0826.0,5.00,0.00,23.9,22.5,00.0,32.3,25.5,18.9,0000.0,0010.91,0003.33,0002.74
2023-04-27 11:42:00,,0825.9,5.00,0.00,23.9,22.5,00.0,32.3,25.5,18.9,0000.0,0010.41,0003.34,0002.72
2023-04-27 11:43:00,,0825.9,4.99,0.00,23.9,22.6,00.0,32.3,25.5,18.8,0000.0,0009.88,0003.36,0002.73
2023-04-27 11:44:00,,0825.9,4.99,0.00,23.9,22.6,00.0,32.3,25.5,18.5,0000.0,0009.51,0003.40,0002.74
2023-04-27 11:45:00,,0826.0,5.01,0.00,23.9,22.5,00.0,32.3,25.5,18.3,0000.0,0009.00,0003.42,0002.75
2023-04-27 11:46:00,,0826.0,5.01,0.00,23.9,22.5,00.0,32.3,25.5,18.5,0000.0,0008.98,0003.43,0002.75
2023-04-27 11:47:00,,0826.0,5.01,0.00,23.9,22.4,00.0,32.2,25.5,18.9,0000.0,0009.24,0003.42,0002.75
2023-04-27 11:48:00,,0825.9,5.00,0.00,23.9,22.3,00.0,32.2,25.5,19.1,0000.0,0009.03,0003.42,0002.78
2023-04-27 11:49:00,,0825.9,5.01,0.00,23.9,22.3,00.0,32.2,25.5,18.4,0000.0,0008.55,0003.42,0002.80
2023-04-27 11:50:00,,0826.0,5.00,0.00,23.9,22.2,00.0,32.2,25.5,18.0,0000.0,0008.26,0003.42,0002.81
2023-04-27 11:51:00,,0826.0,4.99,0.00,23.8,22.2,00.0,32.2,25.5,18.4,0000.0,0008.00,0003.46,0002.82
2023-04-27 11:52:00,,0826.0,4.99,0.00,23.8,22.2,00.0,32.2,25.5,19.0,0000.0,0007.71,0003.47,0002.84
2023-04-27 11:53:00,,0825.9,4.99,0.00,23.8,22.2,00.0,32.2,25.4,18.0,0000.0,0007.69,0003.45,0002.83
2023-04-27 11:54:00,,0825.9,5.00,0.00,23.8,22.3,00.0,32.2,25.4,16.0,0000.0,0007.33,0003.39,0002.80
2023-04-27 11:55:00,,0825.9,5.00,0.00,23.8,22.3,00.0,32.2,25.5,15.3,0000.0,0007.29,0003.36,0002.78
2023-04-27 11:56:00,,0825.9,5.00,0.00,23.9,22.4,00.0,32.2,25.5,14.8,0000.0,0007.44,0003.36,0002.76
2023-04-27 11:57:00,,0825.9,5.00,0.00,23.9,22.4,00.0,32.2,25.5,14.9,0000.0,0007.44,0003.33,0002.73
2023-04-27 11:58:00,,0825.9,5.00,0.00,23.9,22.4,00.0,32.2,25.5,15.2,0000.0,0007.34,0003.32,0002.70
2023-04-27 11:59:00,,0825.9,5.00,0.00,23.9,22.4,00.0,32.2,25.5,15.9,0000.0,0006.94,0003.36,0002.68
